User: anonymous   Login
Location: Unspecified
(0.0000°N, 0.0000°E)
Time: 16:43:01
(UTC+00:00)
Language:

Aussat K3 - Orbit

View from above orbital plane
View from above orbital plane
View from above satellite
View from above satellite

Ground track
Ground track

The orbit data is extracted from the following two-line orbital elements,

1 18350U 87078A   17205.56963205 +.00000003 +00000-0 +00000-0 0  9991
2 18350 014.6644 017.7809 0007222 281.6971 074.9287 00.98905267013897
Epoch (UTC): 24 July 2017 13:40:16
Eccentricity: 0.0007222
inclination: 14.6644°
perigee height: 36143 km
apogee height: 36204 km
right ascension of ascending node: 17.7809°
argument of perigee: 281.6971°
revolutions per day: 0.98905267
mean anomaly at epoch: 74.9287°
orbit number at epoch: 1389

The dashed part of the orbit path shows where the satellite is in the earth's shadow,  

DLR